Time,TemperatureF,DewpointF,PressureIn,WindDirection,WindDirectionDegrees,WindSpeedMPH,WindSpeedGustMPH,Humidity,HourlyPrecipIn,Conditions,Clouds,dailyrainin,SoftwareType,DateUTC
2013-05-15 00:01:00,52.2,41.6,30.10,WNW,293,0.0,0.0,67,0.00,,,0.00,WUHU216HW,2013-05-15 07:01:00,
2013-05-15 00:06:00,52.2,41.6,30.10,WNW,293,0.0,0.0,67,0.00,,,0.00,WUHU216HW,2013-05-15 07:06:00,
2013-05-15 00:11:00,52.2,41.9,30.10,WNW,293,0.0,0.0,68,0.00,,,0.00,WUHU216HW,2013-05-15 07:11:00,
2013-05-15 00:16:00,52.2,41.9,30.10,WNW,293,0.0,0.0,68,0.00,,,0.00,WUHU216HW,2013-05-15 07:16:00,
2013-05-15 00:21:00,51.8,41.7,30.10,WNW,293,0.0,0.0,68,0.00,,,0.00,WUHU216HW,2013-05-15 07:21:00,
2013-05-15 00:26:00,51.7,41.5,30.10,WNW,293,0.0,0.0,68,0.00,,,0.00,WUHU216HW,2013-05-15 07:26:00,
2013-05-15 00:31:00,51.7,41.5,30.09,WNW,293,0.0,0.0,68,0.00,,,0.00,WUHU216HW,2013-05-15 07:31:00,
2013-05-15 00:36:00,51.5,41.3,30.09,WNW,293,0.0,0.0,68,0.00,,,0.00,WUHU216HW,2013-05-15 07:36:00,
2013-05-15 00:41:00,51.5,41.3,30.10,WNW,293,0.0,0.0,68,0.00,,,0.00,WUHU216HW,2013-05-15 07:41:00,
2013-05-15 00:46:00,51.5,41.3,30.09,WNW,293,0.0,0.0,68,0.00,,,0.00,WUHU216HW,2013-05-15 07:46:00,
2013-05-15 00:51:00,51.5,41.3,30.09,WNW,293,0.0,0.0,68,0.00,,,0.00,WUHU216HW,2013-05-15 07:51:00,
2013-05-15 00:56:00,51.3,41.1,30.09,WNW,293,0.0,0.0,68,0.00,,,0.00,WUHU216HW,2013-05-15 07:56:00,
2013-05-15 01:01:00,51.1,41.0,30.09,WNW,293,0.0,0.0,68,0.00,,,0.00,WUHU216HW,2013-05-15 08:01:00,
2013-05-15 01:06:00,51.1,41.3,30.09,WNW,293,0.0,0.0,69,0.00,,,0.00,WUHU216HW,2013-05-15 08:06:00,
2013-05-15 01:11:00,50.9,41.2,30.09,WNW,293,0.0,0.0,69,0.00,,,0.00,WUHU216HW,2013-05-15 08:11:00,
2013-05-15 01:16:00,50.8,41.1,30.09,WNW,293,0.0,0.0,69,0.00,,,0.00,WUHU216HW,2013-05-15 08:16:00,
2013-05-15 01:21:00,50.6,41.2,30.09,WNW,293,0.0,0.0,70,0.00,,,0.00,WUHU216HW,2013-05-15 08:21:00,
2013-05-15 01:26:00,50.4,41.0,30.09,WNW,293,0.0,0.0,70,0.00,,,0.00,WUHU216HW,2013-05-15 08:26:00,
2013-05-15 01:31:00,50.4,41.0,30.09,WNW,293,0.0,0.0,70,0.00,,,0.00,WUHU216HW,2013-05-15 08:31:00,
2013-05-15 01:36:00,50.0,41.1,30.09,WNW,293,0.0,0.0,71,0.00,,,0.00,WUHU216HW,2013-05-15 08:36:00,
2013-05-15 01:41:00,50.0,41.1,30.09,WNW,293,0.0,0.0,71,0.00,,,0.00,WUHU216HW,2013-05-15 08:41:00,
2013-05-15 01:46:00,49.9,41.2,30.09,WNW,293,0.0,0.0,72,0.00,,,0.00,WUHU216HW,2013-05-15 08:46:00,
2013-05-15 01:51:00,49.7,41.1,30.08,WNW,293,0.0,0.0,72,0.00,,,0.00,WUHU216HW,2013-05-15 08:51:00,
2013-05-15 01:56:00,49.7,41.1,30.09,WNW,293,0.0,0.0,72,0.00,,,0.00,WUHU216HW,2013-05-15 08:56:00,
2013-05-15 02:01:00,49.7,41.1,30.09,WNW,293,0.0,0.0,72,0.00,,,0.00,WUHU216HW,2013-05-15 09:01:00,
2013-05-15 02:06:00,49.7,41.1,30.09,WNW,293,0.0,0.0,72,0.00,,,0.00,WUHU216HW,2013-05-15 09:06:00,
2013-05-15 02:11:00,49.7,41.3,30.09,WNW,293,0.0,0.0,73,0.00,,,0.00,WUHU216HW,2013-05-15 09:11:00,
2013-05-15 02:16:00,49.7,41.3,30.08,WNW,293,0.0,0.0,73,0.00,,,0.00,WUHU216HW,2013-05-15 09:16:00,
2013-05-15 02:21:00,49.7,41.3,30.08,WNW,293,0.0,0.0,73,0.00,,,0.00,WUHU216HW,2013-05-15 09:21:00,
2013-05-15 02:26:00,49.7,41.3,30.08,WNW,293,0.0,0.0,73,0.00,,,0.00,WUHU216HW,2013-05-15 09:26:00,
2013-05-15 02:31:00,49.7,41.3,30.08,WNW,293,0.0,0.0,73,0.00,,,0.00,WUHU216HW,2013-05-15 09:31:00,
2013-05-15 02:36:00,49.7,41.3,30.09,WNW,293,0.0,0.0,73,0.00,,,0.00,WUHU216HW,2013-05-15 09:36:00,
2013-05-15 02:41:00,49.7,41.3,30.08,WNW,293,0.0,0.0,73,0.00,,,0.00,WUHU216HW,2013-05-15 09:41:00,
2013-05-15 02:46:00,49.7,41.3,30.08,WNW,293,0.0,0.0,73,0.00,,,0.00,WUHU216HW,2013-05-15 09:46:00,
2013-05-15 02:51:00,49.7,41.3,30.08,WNW,293,0.0,0.0,73,0.00,,,0.00,WUHU216HW,2013-05-15 09:51:00,
2013-05-15 02:56:00,49.9,41.5,30.08,WNW,293,0.0,0.0,73,0.00,,,0.00,WUHU216HW,2013-05-15 09:56:00,
2013-05-15 03:01:00,49.9,41.5,30.08,WNW,293,0.0,0.0,73,0.00,,,0.00,WUHU216HW,2013-05-15 10:01:00,
2013-05-15 03:06:00,49.9,41.5,30.08,WNW,293,0.0,0.0,73,0.00,,,0.00,WUHU216HW,2013-05-15 10:06:00,
2013-05-15 03:11:00,50.0,41.7,30.08,WNW,293,0.0,0.0,73,0.00,,,0.00,WUHU216HW,2013-05-15 10:11:00,
2013-05-15 03:16:00,50.0,41.7,30.08,WNW,293,0.0,0.0,73,0.00,,,0.00,WUHU216HW,2013-05-15 10:16:00,
2013-05-15 03:21:00,50.0,42.0,30.08,WNW,293,0.0,0.0,74,0.00,,,0.00,WUHU216HW,2013-05-15 10:21:00,
2013-05-15 03:59:00,49.9,41.9,30.08,WNW,293,0.0,0.0,74,0.00,,,0.00,WUHU216HW,2013-05-15 10:59:00,
2013-05-15 04:00:00,49.9,41.9,30.08,WNW,293,0.0,0.0,74,0.00,,,0.00,WUHU216HW,2013-05-15 11:00:00,
2013-05-15 04:05:00,49.9,41.9,30.08,WNW,293,0.0,0.0,74,0.00,,,0.00,WUHU216HW,2013-05-15 11:05:00,
2013-05-15 04:30:00,49.5,41.9,30.08,WNW,293,0.0,0.0,75,0.00,,,0.00,WUHU216HW,2013-05-15 11:30:00,
2013-05-15 04:35:00,49.5,41.9,30.08,WNW,293,0.0,0.0,75,0.00,,,0.00,WUHU216HW,2013-05-15 11:35:00,
2013-05-15 05:00:00,49.3,41.7,30.07,WNW,293,0.0,0.0,75,0.00,,,0.00,WUHU216HW,2013-05-15 12:00:00,
2013-05-15 05:05:00,49.3,41.7,30.07,WNW,293,0.0,0.0,75,0.00,,,0.00,WUHU216HW,2013-05-15 12:05:00,
2013-05-15 05:30:00,49.3,42.0,30.06,WNW,293,0.0,0.0,76,0.00,,,0.00,WUHU216HW,2013-05-15 12:30:00,
2013-05-15 05:35:00,49.3,42.0,30.06,WNW,293,0.0,0.0,76,0.00,,,0.00,WUHU216HW,2013-05-15 12:35:00,
2013-05-15 06:00:00,49.0,41.7,30.07,WNW,293,0.0,0.0,76,0.00,,,0.00,WUHU216HW,2013-05-15 13:00:00,
2013-05-15 06:05:00,49.0,41.7,30.07,WNW,293,0.0,0.0,76,0.00,,,0.00,WUHU216HW,2013-05-15 13:05:00,
2013-05-15 06:30:00,49.3,42.4,30.07,WNW,293,0.0,0.0,77,0.00,,,0.00,WUHU216HW,2013-05-15 13:30:00,
2013-05-15 06:35:00,49.3,42.4,30.07,WNW,293,0.0,0.0,77,0.00,,,0.00,WUHU216HW,2013-05-15 13:35:00,
2013-05-15 07:00:00,50.4,43.5,30.07,WNW,293,0.0,0.0,77,0.00,,,0.00,WUHU216HW,2013-05-15 14:00:00,
2013-05-15 07:05:00,50.4,43.5,30.07,WNW,293,0.0,0.0,77,0.00,,,0.00,WUHU216HW,2013-05-15 14:05:00,
2013-05-15 07:30:00,51.7,44.4,30.08,SE,135,0.2,0.2,76,0.00,,,0.00,WUHU216HW,2013-05-15 14:30:00,
2013-05-15 07:35:00,51.7,44.4,30.08,SE,135,0.2,0.2,76,0.00,,,0.00,WUHU216HW,2013-05-15 14:35:00,
2013-05-15 08:00:00,52.9,44.8,30.08,ESE,113,0.4,0.4,74,0.00,,,0.00,WUHU216HW,2013-05-15 15:00:00,
2013-05-15 08:05:00,52.9,44.8,30.08,ESE,113,0.4,0.4,74,0.00,,,0.00,WUHU216HW,2013-05-15 15:05:00,
2013-05-15 08:30:00,53.6,45.2,30.08,ENE,68,0.2,0.2,73,0.00,,,0.00,WUHU216HW,2013-05-15 15:30:00,
2013-05-15 08:35:00,53.6,45.2,30.08,ENE,68,0.2,0.2,73,0.00,,,0.00,WUHU216HW,2013-05-15 15:35:00,
2013-05-15 09:00:00,55.1,45.9,30.09,North,0,0.0,0.0,71,0.00,,,0.00,WUHU216HW,2013-05-15 16:00:00,
2013-05-15 09:05:00,55.1,45.9,30.09,North,0,0.0,0.0,71,0.00,,,0.00,WUHU216HW,2013-05-15 16:05:00,
2013-05-15 09:30:00,56.0,46.7,30.09,WNW,293,0.4,0.4,71,0.00,,,0.00,WUHU216HW,2013-05-15 16:30:00,
2013-05-15 09:35:00,56.0,46.7,30.09,WNW,293,0.4,0.4,71,0.00,,,0.00,WUHU216HW,2013-05-15 16:35:00,
2013-05-15 10:00:00,55.6,46.7,30.09,NNE,23,0.0,0.0,72,0.00,,,0.00,WUHU216HW,2013-05-15 17:00:00,
2013-05-15 10:05:00,55.6,46.7,30.09,NNE,23,0.0,0.0,72,0.00,,,0.00,WUHU216HW,2013-05-15 17:05:00,
2013-05-15 10:30:00,55.4,47.3,30.11,ESE,113,0.4,0.4,74,0.00,,,0.00,WUHU216HW,2013-05-15 17:30:00,
2013-05-15 10:35:00,55.4,47.3,30.11,ESE,113,0.4,0.4,74,0.00,,,0.00,WUHU216HW,2013-05-15 17:35:00,
2013-05-15 11:00:00,56.2,48.3,30.10,East,90,0.4,0.4,75,0.00,,,0.00,WUHU216HW,2013-05-15 18:00:00,
2013-05-15 11:05:00,56.2,48.3,30.10,East,90,0.4,0.4,75,0.00,,,0.00,WUHU216HW,2013-05-15 18:05:00,
2013-05-15 11:30:00,55.1,47.6,30.11,East,90,0.4,0.4,76,0.02,,,0.02,WUHU216HW,2013-05-15 18:30:00,
2013-05-15 11:35:00,55.1,47.6,30.11,East,90,0.4,0.4,76,0.02,,,0.02,WUHU216HW,2013-05-15 18:35:00,
2013-05-15 12:00:00,57.2,49.7,30.10,West,270,0.0,0.0,76,0.00,,,0.02,WUHU216HW,2013-05-15 19:00:00,
2013-05-15 12:05:00,57.2,49.7,30.10,West,270,0.0,0.0,76,0.00,,,0.02,WUHU216HW,2013-05-15 19:05:00,
2013-05-15 12:30:00,58.3,49.7,30.10,NW,315,1.3,1.3,73,0.00,,,0.02,WUHU216HW,2013-05-15 19:30:00,
2013-05-15 12:35:00,58.3,49.7,30.10,NW,315,1.3,1.3,73,0.00,,,0.02,WUHU216HW,2013-05-15 19:35:00,
2013-05-15 13:00:00,58.7,50.0,30.10,North,0,0.0,0.0,73,0.00,,,0.02,WUHU216HW,2013-05-15 20:00:00,
2013-05-15 13:05:00,58.7,50.0,30.10,North,0,0.0,0.0,73,0.00,,,0.02,WUHU216HW,2013-05-15 20:05:00,
2013-05-15 13:30:00,56.9,49.3,30.10,NW,315,0.0,0.0,76,0.00,,,0.02,WUHU216HW,2013-05-15 20:30:00,
2013-05-15 13:35:00,56.9,49.3,30.10,NW,315,0.0,0.0,76,0.00,,,0.02,WUHU216HW,2013-05-15 20:35:00,
2013-05-15 14:00:00,58.1,50.9,30.09,NNW,338,0.2,0.2,77,0.02,,,0.04,WUHU216HW,2013-05-15 21:00:00,
2013-05-15 14:05:00,58.1,50.9,30.09,NNW,338,0.2,0.2,77,0.02,,,0.04,WUHU216HW,2013-05-15 21:05:00,
2013-05-15 14:30:00,59.6,51.3,30.08,ESE,113,0.4,0.4,74,0.00,,,0.04,WUHU216HW,2013-05-15 21:30:00,
2013-05-15 14:35:00,59.6,51.3,30.08,ESE,113,0.4,0.4,74,0.00,,,0.04,WUHU216HW,2013-05-15 21:35:00,
2013-05-15 15:00:00,60.3,51.7,30.08,East,90,0.2,0.2,73,0.00,,,0.04,WUHU216HW,2013-05-15 22:00:00,
2013-05-15 15:05:00,60.3,51.7,30.08,East,90,0.2,0.2,73,0.00,,,0.04,WUHU216HW,2013-05-15 22:05:00,
2013-05-15 15:30:00,59.9,51.3,30.08,NW,315,0.0,0.0,73,0.00,,,0.04,WUHU216HW,2013-05-15 22:30:00,
2013-05-15 15:35:00,59.9,51.3,30.08,NW,315,0.0,0.0,73,0.00,,,0.04,WUHU216HW,2013-05-15 22:35:00,
2013-05-15 16:00:00,60.3,51.3,30.07,SSE,158,0.9,0.9,72,0.00,,,0.04,WUHU216HW,2013-05-15 23:00:00,
2013-05-15 16:05:00,60.3,51.3,30.07,SSE,158,0.9,0.9,72,0.00,,,0.04,WUHU216HW,2013-05-15 23:05:00,
2013-05-15 16:30:00,60.7,51.7,30.06,ESE,113,1.6,1.6,72,0.00,,,0.04,WUHU216HW,2013-05-15 23:30:00,
2013-05-15 16:35:00,60.7,51.7,30.06,ESE,113,1.6,1.6,72,0.00,,,0.04,WUHU216HW,2013-05-15 23:35:00,
2013-05-15 17:00:00,60.8,51.5,30.05,WSW,248,0.9,0.9,71,0.00,,,0.04,WUHU216HW,2013-05-16 00:00:00,
2013-05-15 17:05:00,60.8,51.5,30.05,WSW,248,0.9,0.9,71,0.00,,,0.04,WUHU216HW,2013-05-16 00:05:00,
2013-05-15 17:30:00,60.5,51.1,30.05,ENE,68,0.2,0.2,71,0.00,,,0.04,WUHU216HW,2013-05-16 00:30:00,
2013-05-15 17:35:00,60.5,51.1,30.05,ENE,68,0.2,0.2,71,0.00,,,0.04,WUHU216HW,2013-05-16 00:35:00,
2013-05-15 17:59:00,60.3,50.6,30.04,NNW,338,0.0,0.0,70,0.00,,,0.04,WUHU216HW,2013-05-16 00:59:00,
2013-05-15 18:04:00,60.3,50.6,30.04,NNW,338,0.0,0.0,70,0.00,,,0.04,WUHU216HW,2013-05-16 01:04:00,
2013-05-15 18:30:00,59.2,50.2,30.05,East,90,0.0,0.0,72,0.00,,,0.04,WUHU216HW,2013-05-16 01:30:00,
2013-05-15 18:35:00,59.2,50.2,30.05,East,90,0.0,0.0,72,0.00,,,0.04,WUHU216HW,2013-05-16 01:35:00,
2013-05-15 18:59:00,58.0,50.4,30.04,WSW,248,0.0,0.0,76,0.00,,,0.04,WUHU216HW,2013-05-16 01:59:00,
2013-05-15 19:05:00,58.0,50.4,30.04,WSW,248,0.0,0.0,76,0.00,,,0.04,WUHU216HW,2013-05-16 02:05:00,
2013-05-15 19:30:00,57.6,50.4,30.04,SSE,158,0.0,0.0,77,0.00,,,0.04,WUHU216HW,2013-05-16 02:30:00,
2013-05-15 19:35:00,57.6,50.4,30.04,SSE,158,0.0,0.0,77,0.00,,,0.04,WUHU216HW,2013-05-16 02:35:00,
2013-05-15 19:59:00,57.1,50.2,30.04,East,90,0.0,0.0,78,0.00,,,0.04,WUHU216HW,2013-05-16 02:59:00,
2013-05-15 20:05:00,57.1,50.2,30.04,East,90,0.0,0.0,78,0.00,,,0.04,WUHU216HW,2013-05-16 03:05:00,
2013-05-15 20:30:00,56.7,50.2,30.03,East,90,0.0,0.0,79,0.00,,,0.04,WUHU216HW,2013-05-16 03:30:00,
2013-05-15 20:35:00,56.7,50.2,30.03,East,90,0.0,0.0,79,0.00,,,0.04,WUHU216HW,2013-05-16 03:35:00,
2013-05-15 20:59:00,56.3,49.9,30.04,ESE,113,0.0,0.0,79,0.00,,,0.04,WUHU216HW,2013-05-16 03:59:00,
2013-05-15 21:01:00,56.3,49.9,30.04,ESE,113,0.0,0.0,79,0.00,,,0.04,WUHU216HW,2013-05-16 04:01:00,
2013-05-15 21:06:00,56.3,49.9,30.04,ESE,113,0.0,0.0,79,0.00,,,0.04,WUHU216HW,2013-05-16 04:06:00,
2013-05-15 21:30:00,56.0,49.9,30.04,SE,135,0.0,0.0,80,0.00,,,0.04,WUHU216HW,2013-05-16 04:30:00,
2013-05-15 21:35:00,56.0,49.9,30.04,SE,135,0.0,0.0,80,0.00,,,0.04,WUHU216HW,2013-05-16 04:35:00,
2013-05-15 21:59:00,56.0,49.9,30.04,SE,135,0.4,0.4,80,0.00,,,0.04,WUHU216HW,2013-05-16 04:59:00,
2013-05-15 22:04:00,56.0,49.9,30.04,SE,135,0.4,0.4,80,0.00,,,0.04,WUHU216HW,2013-05-16 05:04:00,
2013-05-15 22:29:00,55.4,49.3,30.03,SE,135,0.0,0.0,80,0.00,,,0.04,WUHU216HW,2013-05-16 05:29:00,
2013-05-15 22:34:00,55.4,49.3,30.03,SE,135,0.0,0.0,80,0.00,,,0.04,WUHU216HW,2013-05-16 05:34:00,
2013-05-15 22:59:00,55.4,49.3,30.03,SE,135,0.0,0.0,80,0.00,,,0.04,WUHU216HW,2013-05-16 05:59:00,
2013-05-15 23:04:00,55.4,49.3,30.03,SE,135,0.0,0.0,80,0.00,,,0.04,WUHU216HW,2013-05-16 06:04:00,
2013-05-15 23:30:00,55.3,49.5,30.02,SE,135,0.0,0.0,81,0.00,,,0.04,WUHU216HW,2013-05-16 06:30:00,
2013-05-15 23:34:00,55.3,49.5,30.02,SE,135,0.0,0.0,81,0.00,,,0.04,WUHU216HW,2013-05-16 06:34:00,
2013-05-15 23:59:00,55.1,49.3,30.01,SE,135,0.0,0.0,81,0.00,,,0.00,WUHU216HW,2013-05-16 06:59:00,